Location: Elende
(51.4317°N, 10.6316°E)
Time: 07:15:40
(UTC+00:00)

Cosmos 1943 Rocket - Pass Details

Date: 18 September 2020
Orbit: 814 x 842 km, 71.0° (Epoch: 22 October)

Event Time Altitude Azimuth Distance (km) Brightness Sun altitude
Exits shadow 22:35:46 19° 43° (NE) 1,895 4.3 -36.6°
Drops below altitude 10° 22:37:19 10° 38° (NE) 2,445 5.0 -36.7°
Sets 22:39:48 0° 33° (NNE) 3,378 5.9 -36.7°
